[[{"header":{"parameterUnit":"m.s-1","parameterCategory":1,"la1":30.2991,"la2":30.254,"lo1":-89.0895,"lo2":-89.0444,"dy":0.0017,"dx":0.0017,"nx":28,"ny":28,"refTime":"2024-07-12T03:00:00:Z","depth":0,"parameterNumber":2,"parameterNumberName":"U-component_of_WINDS"},"data":[0,0,0,0,0,0,0,0,0,0,0,0,0,0,0,0,0,0,0,0,0,0,0,0,0,0,0,0,0,0,0,0,0,0,0,0,0,0,0,0,0,0,0,0,0,0,0,0,0,0,0,0,0,0,0,0,0,0,1.4642,1.4643,0,1.4787,1.4789,1.479,1.4836,1.4835,1.4835,1.4834,1.4984,1.4989,1.4993,0,0,0,0,0,0,0,0,0,0,0,0,0,1.4405,1.4409,1.4642,1.4644,1.4645,1.4787,1.4789,1.4791,1.4836,1.4835,1.4834,1.4834,1.4983,1.4988,1.4994,0,0,0,0,0,0,0,0,0,0,0,0,0,1.4525,1.441,1.4641,1.4685,1.469,1.4786,1.4789,1.4791,1.4836,1.4835,1.4834,1.4833,1.4981,1.4988,1.4994,1.5058,0,0,1.5016,1.5019,0,0,0,0,0,0,0,0,1.4518,1.4533,1.4677,1.4682,1.4688,1.4792,1.476,1.4881,1.4837,1.4781,1.4834,1.4833,1.4921,1.4933,1.4962,1.5065,1.5071,1.5016,1.502,1.5023,1.5025,0,0,0,0,0,0,0,1.451,1.4527,1.4699,1.4679,1.4686,1.4698,1.4714,1.4783,1.4855,1.4786,1.4789,1.4806,1.4924,1.4956,1.4966,1.5073,1.5016,1.5022,1.5026,1.5029,1.5233,1.5235,0,0,0,0,0,0,1.4494,1.452,1.4695,1.4704,1.4599,1.4703,1.4721,1.476,1.4854,1.4868,1.4807,1.4807,1.4944,1.4958,1.4972,1.5051,1.5023,1.503,1.5034,1.5232,1.5234,1.5235,0,0,0,0,0,0,1.4488,1.4509,1.4689,1.4613,1.4637,1.4708,1.4752,1.4763,1.4795,1.487,1.4883,1.4825,1.4944,1.4962,1.5036,1.5057,1.5033,1.5039,1.5231,1.5233,1.5234,1.521,0,0,0,0,0,0,1.4481,1.4507,1.4531,1.4613,1.4641,1.475,1.4753,1.4767,1.4807,1.4809,1.4891,1.4904,1.4945,1.5025,1.5042,1.5066,1.5045,1.5229,1.5232,1.5234,1.5209,1.5211,1.5212,0,0,0,0,0,1.4473,1.4519,1.4532,1.4553,1.4673,1.4751,1.4767,1.4812,1.4808,1.4833,1.4882,1.4901,1.5052,1.5032,1.5052,1.5078,1.5228,1.5231,1.5234,1.5209,1.5211,1.5212,0,0,0,0,0,0,1.4439,1.4531,1.4546,1.4621,1.4677,1.4758,1.4792,1.4813,1.4872,1.4872,1.4926,1.4945,1.5014,1.5054,1.503,1.5144,1.5141,1.5148,1.5115,1.5117,1.5119,1.5107,1.5051,0,0,0,0,0,1.4439,1.4495,1.4573,1.4631,1.4658,1.472,1.4756,1.4786,1.4847,1.4871,1.4925,1.4984,1.5045,1.5084,1.5144,1.5216,1.5234,1.5243,1.5245,1.5246,1.5251,1.5291,1.5295,1.5244,1.5244,1.5244,0,0,1.4442,1.45,1.4531,1.4625,1.4673,1.4729,1.474,1.4799,1.4841,1.4881,1.4953,1.4994,1.5064,1.5136,1.5171,1.5172,1.5269,1.5249,1.5249,1.5254,1.5294,1.5299,1.5303,1.5246,1.5246,1.5246,0,0,1.4476,1.4525,1.4578,1.4625,1.4697,1.4738,1.475,1.4828,1.4857,1.493,1.496,1.5011,1.5115,1.5163,1.5201,1.5251,1.5271,1.5269,1.5277,1.5315,1.5319,1.5323,1.534,1.5345,1.5274,1.5274,1.5274,0,1.447,1.4555,1.4603,1.466,1.47,1.4738,1.4792,1.4835,1.4923,1.495,1.4949,1.5079,1.5129,1.5212,1.5224,1.5254,1.527,1.526,1.5315,1.5319,1.5323,1.534,1.5346,1.5274,1.5274,1.5274,1.5274,0,1.4544,1.4603,1.4637,1.472,1.4764,1.482,1.4875,1.4914,1.494,1.4981,1.5054,1.5115,1.5187,1.521,1.5236,1.5297,1.5295,1.5304,1.5302,1.5326,1.5343,1.535,1.5272,1.5273,1.5273,1.5273,0,0,1.4559,1.4667,1.4679,1.4717,1.4798,1.4845,1.4902,1.4972,1.5004,1.5063,1.5111,1.5198,1.5206,1.5249,1.5281,1.5315,1.5349,1.532,1.5322,1.5322,1.5419,1.5411,1.5417,1.5364,1.5365,1.5366,1.5413,0,1.4602,1.4705,1.4749,1.4831,1.4886,1.4922,1.4972,1.5027,1.5066,1.5118,1.5162,1.5222,1.5229,1.5255,1.529,1.5338,1.5369,1.5335,1.5409,1.5411,1.5389,1.5426,1.5418,1.5459,1.5419,1.5421,1.5422,0,1.4666,1.4724,1.4812,1.4886,1.491,1.4954,1.5021,1.5071,1.5134,1.5161,1.5208,1.5238,1.5299,1.5293,1.5378,1.5353,1.5386,1.5414,1.5417,1.5425,1.5417,1.5434,1.5474,1.5479,1.5432,1.5432,1.5431,0,1.4666,1.4767,1.4832,1.4864,1.4952,1.4982,1.502,1.5083,1.5122,1.5181,1.5206,1.5272,1.5308,1.5358,1.5405,1.5396,1.5484,1.5483,1.5507,1.5506,1.5523,1.5521,1.5567,1.5546,1.5546,1.5546,1.5546,0,1.4708,1.476,1.4834,1.4873,1.4932,1.4983,1.504,1.5081,1.5136,1.5184,1.5221,1.5265,1.5325,1.5378,1.5415,1.5479,1.5495,1.5518,1.5527,1.5514,1.5511,1.5535,1.5533,1.5548,1.5547,1.5547,1.5547,0,1.4718,1.477,1.4843,1.4921,1.4942,1.4981,1.5048,1.5088,1.5129,1.519,1.5207,1.5272,1.5335,1.5387,1.5471,1.5496,1.5562,1.5573,1.554,1.5544,1.5565,1.5562,1.5628,1.5639,1.5611,1.5611,1.5611,0,1.4741,1.4782,1.4864,1.4899,1.4936,1.4992,1.5032,1.5083,1.5123,1.5198,1.5229,1.5295,1.535,1.5449,1.5504,1.5568,1.558,1.5599,1.559,1.5575,1.5579,1.5575,1.5579,1.5599,1.5599,1.5599,1.5599,0,1.4776,1.4799,1.4855,1.492,1.4966,1.502,1.5074,1.51,1.5162,1.5205,1.5269,1.5312,1.5397,1.5461,1.5531,1.5571,1.5595,1.5601,1.561,1.5597,1.5576,1.5586,1.554,1.56,1.56,1.56,1.56,1.5599,1.4793,1.483,1.4893,1.4954,1.5,1.505,1.5091,1.5137,1.5192,1.5264,1.5292,1.5358,1.542,1.5515,1.5555,1.5608,1.5611,1.5624,1.5627,1.5629,1.5626,1.5568,1.5621,1.5621,1.5621,1.5621,1.5621,0,1.4828,1.4871,1.4926,1.5001,1.5049,1.5067,1.5128,1.5167,1.5224,1.528,1.5333,1.5408,1.547,1.5529,1.5595,1.5625,1.5638,1.5641,1.5639,1.5647,1.5621,1.5606,1.5629,1.5629,1.5629,1.5629,1.5629,1.5629,1.4853,1.4916,1.4947,1.5034,1.5077,1.5141,1.5174,1.522,1.5265,1.5346,1.5398,1.5436,1.5493,1.5563,1.5621,1.5637,1.5659,1.5658,1.5677,1.5651,1.5649,1.5648,1.5634,1.5663,1.5663,1.5699,1.5699,1.5699]},{"header":{"parameterUnit":"m.s-1","parameterCategory":1,"la1":30.2991,"la2":30.254,"lo1":-89.0895,"lo2":-89.0444,"dy":0.0017,"dx":0.0017,"nx":28,"ny":28,"refTime":"2024-07-12T03:00:00:Z","depth":0,"parameterNumber":3,"parameterNumberName":"V-component_of_WINDS"},"data":[0,0,0,0,0,0,0,0,0,0,0,0,0,0,0,0,0,0,0,0,0,0,0,0,0,0,0,0,0,0,0,0,0,0,0,0,0,0,0,0,0,0,0,0,0,0,0,0,0,0,0,0,0,0,0,0,0,0,4.3119,4.3118,0,4.308,4.308,4.3079,4.306,4.306,4.306,4.306,4.3015,4.3014,4.3012,0,0,0,0,0,0,0,0,0,0,0,0,0,4.317,4.317,4.3119,4.3118,4.3118,4.308,4.308,4.3079,4.306,4.306,4.306,4.3061,4.3015,4.3014,4.3012,0,0,0,0,0,0,0,0,0,0,0,0,0,4.3141,4.3169,4.3119,4.3104,4.3102,4.308,4.308,4.3079,4.306,4.306,4.306,4.3061,4.3016,4.3014,4.3012,4.3,0,0,4.3006,4.3005,0,0,0,0,0,0,0,0,4.3143,4.314,4.3107,4.3105,4.3103,4.3075,4.3081,4.3052,4.306,4.3076,4.306,4.3061,4.3034,4.3031,4.3024,4.2998,4.2996,4.3006,4.3005,4.3004,4.3004,0,0,0,0,0,0,0,4.3145,4.3141,4.3103,4.3106,4.3104,4.3098,4.3093,4.3076,4.3055,4.3075,4.3073,4.3069,4.3033,4.3025,4.3022,4.2995,4.3006,4.3005,4.3003,4.3003,4.2957,4.2957,0,0,0,0,0,0,4.315,4.3143,4.3104,4.3102,4.3124,4.3097,4.3092,4.3084,4.3056,4.3051,4.3069,4.3069,4.3029,4.3025,4.3021,4.3005,4.3004,4.3002,4.3001,4.2957,4.2957,4.2957,0,0,0,0,0,0,4.3152,4.3147,4.3106,4.3122,4.3116,4.3096,4.3087,4.3083,4.3075,4.3052,4.3047,4.3065,4.3028,4.3023,4.3006,4.3003,4.3002,4.3,4.2958,4.2957,4.2957,4.2973,0,0,0,0,0,0,4.3153,4.3148,4.3144,4.3122,4.3116,4.3094,4.3087,4.3083,4.3073,4.3072,4.3047,4.3042,4.3028,4.3009,4.3004,4.3,4.2999,4.2958,4.2957,4.2957,4.2973,4.2973,4.2974,0,0,0,0,0,4.3155,4.3149,4.3144,4.314,4.3111,4.3093,4.3089,4.3075,4.3073,4.3068,4.3053,4.3043,4.3004,4.3007,4.3001,4.2997,4.2958,4.2958,4.2957,4.2972,4.2973,4.2974,0,0,0,0,0,0,4.3168,4.3146,4.314,4.3127,4.3113,4.309,4.3084,4.3076,4.3061,4.306,4.304,4.3035,4.3019,4.3006,4.301,4.2984,4.298,4.2979,4.2993,4.2994,4.2995,4.2998,4.2997,0,0,0,0,0,4.317,4.316,4.3139,4.313,4.3123,4.3105,4.3097,4.3087,4.307,4.3063,4.3047,4.3029,4.3013,4.3003,4.2986,4.2971,4.2965,4.2965,4.2966,4.2967,4.2965,4.2956,4.2956,4.2957,4.2957,4.2957,0,0,4.3173,4.3159,4.3153,4.3132,4.312,4.3108,4.31,4.3087,4.3077,4.3061,4.3044,4.3031,4.301,4.2994,4.2986,4.2983,4.2964,4.2966,4.2967,4.2965,4.2956,4.2956,4.2956,4.2956,4.2956,4.2956,0,0,4.3172,4.3161,4.3152,4.314,4.3123,4.3111,4.3109,4.3088,4.308,4.3063,4.305,4.3037,4.301,4.2996,4.2985,4.298,4.297,4.2975,4.2978,4.2969,4.2969,4.2969,4.2967,4.2966,4.2974,4.2974,4.2974,0,4.3177,4.3161,4.3148,4.3136,4.3127,4.3114,4.3103,4.3092,4.3069,4.3062,4.306,4.3026,4.3011,4.2991,4.299,4.2981,4.2977,4.2977,4.2971,4.297,4.297,4.2968,4.2967,4.2974,4.2974,4.2974,4.2974,0,4.3168,4.3156,4.3151,4.3131,4.3121,4.311,4.3094,4.3085,4.3076,4.3064,4.3047,4.3029,4.3009,4.3003,4.2994,4.2982,4.2981,4.2975,4.297,4.2971,4.2968,4.2967,4.2976,4.2975,4.2975,4.2975,0,0,4.3174,4.3149,4.3147,4.3138,4.3118,4.3108,4.3095,4.3078,4.3071,4.3055,4.3044,4.3022,4.3017,4.3004,4.2993,4.2985,4.2982,4.298,4.2979,4.2981,4.2967,4.2972,4.2971,4.2975,4.2975,4.2975,4.2969,0,4.317,4.315,4.3138,4.3123,4.3111,4.3099,4.3088,4.3074,4.3062,4.305,4.3036,4.3021,4.3015,4.3008,4.3,4.2984,4.2979,4.2984,4.2963,4.2962,4.2969,4.2969,4.2974,4.2969,4.2968,4.2967,4.2967,0,4.3162,4.315,4.3134,4.3116,4.311,4.3101,4.3085,4.3073,4.3056,4.3048,4.3036,4.3024,4.301,4.3007,4.2985,4.299,4.298,4.2971,4.297,4.2967,4.2965,4.2966,4.2967,4.2966,4.2966,4.2966,4.2966,0,4.3168,4.3147,4.3135,4.3128,4.3106,4.31,4.309,4.3074,4.3064,4.3049,4.3042,4.3024,4.3015,4.3,4.2984,4.2984,4.2964,4.296,4.2956,4.2956,4.2952,4.2952,4.2951,4.2947,4.2947,4.2947,4.2947,0,4.3165,4.3155,4.3137,4.313,4.3118,4.3104,4.3093,4.3082,4.3067,4.3056,4.3043,4.3033,4.3012,4.2999,4.2986,4.297,4.2965,4.2957,4.2954,4.2958,4.2959,4.2951,4.2951,4.2946,4.2946,4.2947,4.2947,0,4.3169,4.3157,4.3143,4.3124,4.3119,4.3112,4.3095,4.3086,4.3074,4.306,4.3056,4.3037,4.302,4.3003,4.298,4.2971,4.2955,4.2951,4.2962,4.296,4.2957,4.2957,4.295,4.2948,4.2946,4.2946,4.2946,0,4.3168,4.3161,4.3142,4.3135,4.3126,4.3114,4.3105,4.3091,4.3081,4.3062,4.3055,4.3038,4.3024,4.2997,4.298,4.2962,4.2957,4.2955,4.2954,4.2959,4.2956,4.2957,4.2956,4.2956,4.2956,4.2956,4.2956,0,4.3167,4.3161,4.315,4.3136,4.3126,4.3114,4.3101,4.3095,4.3078,4.3068,4.3052,4.3041,4.3019,4.3001,4.2982,4.2969,4.2959,4.2957,4.2955,4.2959,4.2966,4.2962,4.2963,4.2957,4.2957,4.2957,4.2957,4.2957,4.3168,4.3161,4.3147,4.3135,4.3124,4.3113,4.3104,4.3092,4.3079,4.3062,4.3053,4.3037,4.302,4.2993,4.2981,4.2967,4.2964,4.2961,4.296,4.296,4.2961,4.2969,4.2963,4.2963,4.2963,4.2963,4.2963,0,4.3166,4.3157,4.3146,4.3129,4.3119,4.3113,4.3099,4.309,4.3077,4.3063,4.305,4.3031,4.3015,4.2997,4.2979,4.2971,4.2966,4.2966,4.2966,4.2964,4.2964,4.2968,4.2971,4.2971,4.2971,4.2971,4.2971,4.2971,4.3164,4.3152,4.3145,4.3127,4.3117,4.3103,4.3096,4.3085,4.3073,4.3054,4.3041,4.3031,4.3015,4.2995,4.2979,4.2974,4.2968,4.297,4.2964,4.2964,4.2964,4.2963,4.2966,4.2969,4.2969,4.2964,4.2964,4.2964]}]]